Change the Weather History Date:

Thursday, December 1, 2011

  Actual Average Record
Temperature  
Mean Temperature 40 °F 35 °F  
Max Temperature 51 °F 43 °F 67 °F (1913)
Min Temperature 30 °F 27 °F 7 °F (1985)
Degree Days  
Heating Degree Days 24 30  
Month to date heating degree days 30  
Since 1 July heating degree days 1130  
Cooling Degree Days 0 0  
Month to date cooling degree days 0  
Year to date cooling degree days 1094  
Moisture  
Dew Point 25 °F    
Average Humidity 59    
Maximum Humidity 76    
Minimum Humidity 39    
Precipitation  
Precipitation 0.00 in 0.09 in 0.83 in (1985)
Month to date precipitation 0.09  
Year to date precipitation 35.17  
Sea Level Pressure  
Sea Level Pressure 30.24 in    
Wind  
Wind Speed 6 mph (SSE)    
Max Wind Speed 12 mph    
Max Gust Speed -    
Visibility 10 miles    
Events      
T = Trace of Precipitation, MM = Missing Value Source: NWS Daily Summary

Daily Weather History Graph

Daily Weather History Graph

Search for Another Location

Airport or City:

Trip Planner

Search our weather history database for the weather conditions in past years. The results will help you decide how hot, cold, wet, or windy it might be!

Date:

Astronomy

Dec. 01, 2011 Rise Set
Actual Time 7:07 AM CST 4:40 PM CST
Civil Twilight 6:37 AM CST 5:10 PM CST
Nautical Twilight 6:03 AM CST 5:43 PM CST
Astronomical Twilight 5:30 AM CST 6:16 PM CST
Moon 11:52 AM CST (12/1) 11:38 PM CST (12/1)
Length of Visible Light 10h 33m
Length of Day
9h 33m
Waxing Crescent, 43% of the Moon is Illuminated
Dec 1
Waxing Crescent
Dec 2
First Quarter
Dec 10
Full
Dec 17
Last Quarter
Dec 24
New

Hourly Weather History & Observations

Time (CST) Temp. Windchill Dew Point Humidity Pressure Visibility Wind Dir Wind Speed Gust Speed Precip Events Conditions
12:54 AM 30.2 °F 24.3 °F 21.2 °F 69% 30.13 in 10.0 mi SSE 5.8 mph - N/A   Clear
1:54 AM 32.0 °F 27.5 °F 23.0 °F 69% 30.13 in 10.0 mi SE 4.6 mph - N/A   Clear
2:54 AM 33.1 °F 30.0 °F 23.0 °F 66% 30.17 in 10.0 mi SE 3.5 mph - N/A   Clear
3:54 AM 30.0 °F 22.4 °F 23.0 °F 75% 30.18 in 10.0 mi SE 8.1 mph - N/A   Clear
4:54 AM 30.9 °F 23.5 °F 21.9 °F 69% 30.19 in 10.0 mi SSE 8.1 mph - N/A   Clear
5:54 AM 30.9 °F 25.2 °F 21.9 °F 69% 30.20 in 10.0 mi SSE 5.8 mph - N/A   Clear
6:54 AM 30.9 °F 26.2 °F 21.9 °F 69% 30.22 in 10.0 mi South 4.6 mph - N/A   Clear
7:54 AM 32.0 °F 25.6 °F 21.9 °F 66% 30.24 in 10.0 mi South 6.9 mph - N/A   Clear
8:54 AM 37.4 °F 30.8 °F 24.8 °F 60% 30.23 in 10.0 mi South 9.2 mph - N/A   Clear
9:54 AM 39.0 °F 33.4 °F 25.0 °F 57% 30.27 in 10.0 mi SSW 8.1 mph - N/A   Clear
10:54 AM 44.1 °F 39.5 °F 25.0 °F 47% 30.26 in 10.0 mi South 8.1 mph - N/A   Clear
11:54 AM 46.0 °F 43.1 °F 26.1 °F 46% 30.24 in 10.0 mi SSW 5.8 mph - N/A   Clear
12:54 PM 50.0 °F - 28.0 °F 43% 30.22 in 10.0 mi SSW 6.9 mph - N/A   Clear
1:54 PM 51.1 °F - 27.0 °F 39% 30.22 in 10.0 mi Calm Calm - N/A   Clear
2:54 PM 51.1 °F - 28.0 °F 41% 30.21 in 10.0 mi Calm Calm - N/A   Clear
3:54 PM 51.8 °F - 30.2 °F 44% 30.22 in 10.0 mi Calm Calm - N/A   Clear
4:54 PM 48.0 °F - 28.0 °F 46% 30.25 in 10.0 mi Calm Calm - N/A   Clear
5:54 PM 41.0 °F 35.2 °F 28.0 °F 60% 30.27 in 10.0 mi North 9.2 mph - N/A   Clear
6:54 PM 39.9 °F 32.9 °F 26.1 °F 58% 30.30 in 10.0 mi North 11.5 mph - N/A   Clear
7:54 PM 36.0 °F 30.3 °F 24.1 °F 62% 30.32 in 10.0 mi North 6.9 mph - N/A   Clear
8:54 PM 37.0 °F 31.0 °F 25.0 °F 62% 30.33 in 10.0 mi NNW 8.1 mph - N/A   Mostly Cloudy
9:54 PM 37.9 °F 32.1 °F 25.0 °F 60% 30.33 in 10.0 mi North 8.1 mph - N/A   Overcast
10:54 PM 37.4 °F 31.4 °F 26.6 °F 65% 30.33 in 10.0 mi NNW 8.1 mph - N/A   Overcast
11:54 PM 37.0 °F 29.8 °F 30.0 °F 76% 30.37 in 10.0 mi NNW 10.4 mph - N/A   Overcast